Location: Ethel Rock
(53.4667°N, 4.5667°W)
Time: 00:04:08
(UTC+00:00)

Cosmos 2344 - Pass Details

Date: 24 October 2020
Orbit: 1246 x 2997 km, 63.3° (Epoch: 26 November)

Event Time Altitude Azimuth Distance (km) Brightness Sun altitude
Exits shadow 05:25:53 15° 241° (WSW) 2,860 4.9 -15.0°
Maximum altitude 05:32:18 72° 325° (NW) 1,371 3.6 -14.0°
Drops below altitude 10° 05:40:58 10° 50° (NE) 3,723 6.7 -12.7°
Sets 05:44:20 0° 53° (NE) 4,909 7.5 -12.2°
